User: anonymous   Login
Location: Fishcreek Rd Observing Site
(41.1865°N, 81.4271°W)
Time: 05:24:52
(UTC-04:00)
Language:

Iridium 45 - Orbit

View from above orbital plane
View from above orbital plane
View from above satellite
View from above satellite

Ground track
Ground track

The orbit data is extracted from the following two-line orbital elements,

1 25104U 97082A   15144.30616045  .00000309  00000-0  10355-3 0  9997
2 25104 087.0287 241.0439 0002160 095.1205 265.0238 14.34221380912174
Epoch (UTC): 24 May 2015 07:20:52
Eccentricity: 0.0002160
inclination: 87.0287°
perigee height: 776 km
apogee height: 779 km
right ascension of ascending node: 241.0439°
argument of perigee: 95.1205°
revolutions per day: 14.34221380
mean anomaly at epoch: 265.0238°
orbit number at epoch: 91217

The dashed part of the orbit path shows where the satellite is in the earth's shadow,  

DLR